Location: Góry Miechowskie
(50.3599°N, 20.1803°E)
Time: 03:13:50
(UTC+00:00)

SR - Pass Details

Date: 21 September 2024
Orbit: 578 x 855 km, 66.7° (Epoch: 04 October)

Event Time Altitude Azimuth Distance (km) Brightness Sun altitude
Rises 20:05:49 0° 311° (NW) 2,971 ? -30.6°
Reaches altitude 10° 20:08:37 10° 293° (WNW) 2,105 ? -30.9°
Enters shadow 20:11:47 19° 252° (WSW) 1,645 ? -31.2°
